Year,Month,Day,Hour,Minute,Value (Times are PST for temperature in C)
2014,01,12,00,00,5.20
2014,01,12,00,01,5.20
2014,01,12,00,02,5.20
2014,01,12,00,03,5.20
2014,01,12,00,04,5.20
2014,01,12,00,05,5.20
2014,01,12,00,06,5.20
2014,01,12,00,07,5.20
2014,01,12,00,08,5.20
2014,01,12,00,09,5.20
2014,01,12,00,10,5.20
2014,01,12,00,11,5.20
2014,01,12,00,12,5.20
2014,01,12,00,13,5.20
2014,01,12,00,14,5.20
2014,01,12,00,15,5.10
2014,01,12,00,16,5.10
2014,01,12,00,17,5.10
2014,01,12,00,18,5.10
2014,01,12,00,19,5.10
2014,01,12,00,20,5.10
2014,01,12,00,21,5.10
2014,01,12,00,22,5.10
2014,01,12,00,23,5.20
2014,01,12,00,24,5.20
2014,01,12,00,25,5.20
2014,01,12,00,26,5.20
2014,01,12,00,27,5.20
2014,01,12,00,28,5.20
2014,01,12,00,29,5.20
2014,01,12,00,30,5.10
2014,01,12,00,31,5.10
2014,01,12,00,32,5.10
2014,01,12,00,33,5.10
2014,01,12,00,34,5.10
2014,01,12,00,35,5.10
2014,01,12,00,36,5.10
2014,01,12,00,37,5.10
2014,01,12,00,38,5.10
2014,01,12,00,39,5.10
2014,01,12,00,40,5.10
2014,01,12,00,41,5.10
2014,01,12,00,42,5.10
2014,01,12,00,43,5.10
2014,01,12,00,44,5.10
2014,01,12,00,45,5.10
2014,01,12,00,46,5.10
2014,01,12,00,47,5.10
2014,01,12,00,48,5.10
2014,01,12,00,49,5.00
2014,01,12,00,50,5.00
2014,01,12,00,51,5.00
2014,01,12,00,52,5.00
2014,01,12,00,53,5.00
2014,01,12,00,54,5.00
2014,01,12,00,55,5.00
2014,01,12,00,56,5.00
2014,01,12,00,57,5.00
2014,01,12,00,58,5.00
2014,01,12,00,59,4.90
2014,01,12,01,00,4.90
2014,01,12,01,01,4.90
2014,01,12,01,02,4.90
2014,01,12,01,03,4.80
2014,01,12,01,04,4.80
2014,01,12,01,05,4.80
2014,01,12,01,06,4.80
2014,01,12,01,07,4.80
2014,01,12,01,08,4.80
2014,01,12,01,09,4.80
2014,01,12,01,10,4.80
2014,01,12,01,11,4.80
2014,01,12,01,12,4.80
2014,01,12,01,13,4.80
2014,01,12,01,14,4.80
2014,01,12,01,15,4.80
2014,01,12,01,16,4.80
2014,01,12,01,17,4.90
2014,01,12,01,18,4.90
2014,01,12,01,19,4.80
2014,01,12,01,20,4.90
2014,01,12,01,21,4.80
2014,01,12,01,22,4.80
2014,01,12,01,23,4.80
2014,01,12,01,24,4.80
2014,01,12,01,25,4.80
2014,01,12,01,26,4.80
2014,01,12,01,27,4.80
2014,01,12,01,28,4.80
2014,01,12,01,29,4.90
2014,01,12,01,30,4.80
2014,01,12,01,31,4.80
2014,01,12,01,32,4.80
2014,01,12,01,33,4.80
2014,01,12,01,34,4.80
2014,01,12,01,35,4.80
2014,01,12,01,36,4.80
2014,01,12,01,37,4.80
2014,01,12,01,38,4.80
2014,01,12,01,39,4.80
2014,01,12,01,40,4.80
2014,01,12,01,41,4.80
2014,01,12,01,42,4.80
2014,01,12,01,43,4.80
2014,01,12,01,44,4.80
2014,01,12,01,45,4.80
2014,01,12,01,46,4.80
2014,01,12,01,47,4.80
2014,01,12,01,48,4.80
2014,01,12,01,49,4.80
2014,01,12,01,50,4.80
2014,01,12,01,51,4.70
2014,01,12,01,52,4.70
2014,01,12,01,53,4.70
2014,01,12,01,54,4.70
2014,01,12,01,55,4.60
2014,01,12,01,56,4.60
2014,01,12,01,57,4.60
2014,01,12,01,58,4.60
2014,01,12,01,59,4.60
2014,01,12,02,00,4.60
2014,01,12,02,01,4.60
2014,01,12,02,02,4.60
2014,01,12,02,03,4.70
2014,01,12,02,04,4.70
2014,01,12,02,05,4.70
2014,01,12,02,06,4.80
2014,01,12,02,07,4.80
2014,01,12,02,08,4.80
2014,01,12,02,09,4.80
2014,01,12,02,10,4.80
2014,01,12,02,11,4.80
2014,01,12,02,12,4.80
2014,01,12,02,13,4.80
2014,01,12,02,14,4.70
2014,01,12,02,15,4.70
2014,01,12,02,16,4.70
2014,01,12,02,17,4.60
2014,01,12,02,18,4.60
2014,01,12,02,19,4.50
2014,01,12,02,20,4.50
2014,01,12,02,21,4.40
2014,01,12,02,22,4.40
2014,01,12,02,23,4.40
2014,01,12,02,24,4.40
2014,01,12,02,25,4.30
2014,01,12,02,26,4.30
2014,01,12,02,27,4.30
2014,01,12,02,28,4.30
2014,01,12,02,29,4.30
2014,01,12,02,30,4.30
2014,01,12,02,31,4.30
2014,01,12,02,32,4.30
2014,01,12,02,33,4.30
2014,01,12,02,34,4.30
2014,01,12,02,35,4.20
2014,01,12,02,36,4.20
2014,01,12,02,37,4.10
2014,01,12,02,38,4.10
2014,01,12,02,39,4.00
2014,01,12,02,40,4.00
2014,01,12,02,41,4.00
2014,01,12,02,42,4.00
2014,01,12,02,43,4.10
2014,01,12,02,44,4.10
2014,01,12,02,45,4.10
2014,01,12,02,46,4.10
2014,01,12,02,47,4.10
2014,01,12,02,48,4.10
2014,01,12,02,49,4.10
2014,01,12,02,50,4.20
2014,01,12,02,51,4.20
2014,01,12,02,52,4.20
2014,01,12,02,53,4.20
2014,01,12,02,54,4.20
2014,01,12,02,55,4.20
2014,01,12,02,56,4.30
2014,01,12,02,57,4.30
2014,01,12,02,58,4.30
2014,01,12,02,59,4.30
2014,01,12,03,00,4.30
2014,01,12,03,01,4.30
2014,01,12,03,02,4.30
2014,01,12,03,03,4.30
2014,01,12,03,04,4.30
2014,01,12,03,05,4.30
2014,01,12,03,06,4.30
2014,01,12,03,07,4.30
2014,01,12,03,08,4.30
2014,01,12,03,09,4.30
2014,01,12,03,10,4.40
2014,01,12,03,11,4.40
2014,01,12,03,12,4.40
2014,01,12,03,13,4.40
2014,01,12,03,14,4.40
2014,01,12,03,15,4.40
2014,01,12,03,16,4.50
2014,01,12,03,17,4.50
2014,01,12,03,18,4.40
2014,01,12,03,19,4.40
2014,01,12,03,20,4.40
2014,01,12,03,21,4.50
2014,01,12,03,22,4.50
2014,01,12,03,23,4.50
2014,01,12,03,24,4.50
2014,01,12,03,25,4.50
2014,01,12,03,26,4.50
2014,01,12,03,27,4.60
2014,01,12,03,28,4.60
2014,01,12,03,29,4.60
2014,01,12,03,30,4.60
2014,01,12,03,31,4.60
2014,01,12,03,32,4.60
2014,01,12,03,33,4.70
2014,01,12,03,34,4.70
2014,01,12,03,35,4.70
2014,01,12,03,36,4.70
2014,01,12,03,37,4.70
2014,01,12,03,38,4.70
2014,01,12,03,39,4.70
2014,01,12,03,40,4.70
2014,01,12,03,41,4.70
2014,01,12,03,42,4.70
2014,01,12,03,43,4.70
2014,01,12,03,44,4.70
2014,01,12,03,45,4.70
2014,01,12,03,46,4.70
2014,01,12,03,47,4.70
2014,01,12,03,48,4.70
2014,01,12,03,49,4.70
2014,01,12,03,50,4.70
2014,01,12,03,51,4.70
2014,01,12,03,52,4.70
2014,01,12,03,53,4.70
2014,01,12,03,54,4.70
2014,01,12,03,55,4.70
2014,01,12,09,34,3.40
2014,01,12,09,35,3.40
2014,01,12,09,36,3.40
2014,01,12,09,37,3.40
2014,01,12,09,38,3.50
2014,01,12,09,39,3.50
2014,01,12,09,40,3.50
2014,01,12,09,41,3.50
2014,01,12,09,42,3.50
2014,01,12,09,43,3.50
2014,01,12,09,44,3.50
2014,01,12,09,45,3.50
2014,01,12,09,46,3.50
2014,01,12,09,47,3.50
2014,01,12,09,48,3.50
2014,01,12,09,49,3.50
2014,01,12,09,50,3.50
2014,01,12,09,51,3.50
2014,01,12,09,52,3.50
2014,01,12,09,53,3.50
2014,01,12,09,54,3.50
2014,01,12,09,55,3.50
2014,01,12,09,56,3.50
2014,01,12,09,57,3.50
2014,01,12,09,58,3.50
2014,01,12,09,59,3.50
2014,01,12,10,00,3.50
2014,01,12,10,01,3.50
2014,01,12,10,02,3.50
2014,01,12,10,03,3.50
2014,01,12,10,04,3.50
2014,01,12,10,05,3.50
2014,01,12,10,06,3.50
2014,01,12,10,07,3.50
2014,01,12,10,08,3.50
2014,01,12,10,09,3.60
2014,01,12,10,10,3.60
2014,01,12,10,11,3.60
2014,01,12,10,12,3.60
2014,01,12,10,13,3.60
2014,01,12,10,14,3.60
2014,01,12,10,15,3.60
2014,01,12,10,16,3.60
2014,01,12,10,17,3.60
2014,01,12,10,18,3.60
2014,01,12,10,19,3.60
2014,01,12,10,20,3.70
2014,01,12,10,21,3.70
2014,01,12,10,22,3.70
2014,01,12,10,23,3.70
2014,01,12,10,24,3.70
2014,01,12,10,25,3.70
2014,01,12,10,26,3.70
2014,01,12,10,27,3.70
2014,01,12,10,28,3.70
2014,01,12,10,29,3.70
2014,01,12,10,30,3.70
2014,01,12,10,31,3.70
2014,01,12,10,32,3.70
2014,01,12,10,33,3.70
2014,01,12,10,34,3.80
2014,01,12,10,35,3.80
2014,01,12,10,36,3.80
2014,01,12,10,37,3.80
2014,01,12,10,38,3.80
2014,01,12,10,39,3.80
2014,01,12,10,40,3.90
2014,01,12,10,41,3.90
2014,01,12,10,42,3.90
2014,01,12,10,43,3.90
2014,01,12,10,44,3.90
2014,01,12,10,45,3.90
2014,01,12,10,46,3.90
2014,01,12,10,47,3.90
2014,01,12,10,48,3.90
2014,01,12,10,49,3.90
2014,01,12,10,50,4.00
2014,01,12,10,51,4.00
2014,01,12,10,52,4.00
2014,01,12,10,53,4.00
2014,01,12,10,54,4.00
2014,01,12,10,55,4.00
2014,01,12,10,56,4.00
2014,01,12,10,57,4.00
2014,01,12,10,58,4.00
2014,01,12,10,59,4.00
2014,01,12,11,00,4.00
2014,01,12,11,01,4.00
2014,01,12,11,02,4.00
2014,01,12,11,03,4.00
2014,01,12,11,04,4.00
2014,01,12,11,05,4.00
2014,01,12,11,06,4.00
2014,01,12,11,07,4.00
2014,01,12,11,08,4.00
2014,01,12,11,09,4.00
2014,01,12,11,10,4.00
2014,01,12,11,11,4.10
2014,01,12,11,12,4.10
2014,01,12,11,13,4.10
2014,01,12,11,14,4.10
2014,01,12,11,15,4.10
2014,01,12,11,16,4.10
2014,01,12,11,17,4.10
2014,01,12,11,18,4.10
2014,01,12,11,19,4.10
2014,01,12,11,20,4.10
2014,01,12,11,21,4.10
2014,01,12,11,22,4.10
2014,01,12,11,23,4.10
2014,01,12,11,24,4.10
2014,01,12,11,25,4.10
2014,01,12,11,26,4.10
2014,01,12,11,27,4.10
2014,01,12,11,28,4.10
2014,01,12,11,29,4.10
2014,01,12,11,30,4.10
2014,01,12,11,31,4.10
2014,01,12,11,32,4.10
2014,01,12,11,33,4.10
2014,01,12,11,34,4.10
2014,01,12,11,35,4.10
2014,01,12,11,36,4.10
2014,01,12,11,37,4.10
2014,01,12,11,38,4.10
2014,01,12,11,39,4.20
2014,01,12,11,40,4.20
2014,01,12,11,41,4.20
2014,01,12,11,42,4.20
2014,01,12,11,43,4.20
2014,01,12,11,44,4.20
2014,01,12,11,45,4.20
2014,01,12,11,46,4.20
2014,01,12,11,47,4.20
2014,01,12,11,48,4.20
2014,01,12,11,49,4.10
2014,01,12,11,50,4.10
2014,01,12,11,51,4.20
2014,01,12,11,52,4.20
2014,01,12,11,53,4.10
2014,01,12,11,54,4.20
2014,01,12,11,55,4.20
2014,01,12,11,56,4.20
2014,01,12,11,57,4.20
2014,01,12,11,58,4.20
2014,01,12,11,59,4.30
2014,01,12,12,00,4.30
2014,01,12,12,01,4.30
2014,01,12,12,02,4.30
2014,01,12,12,03,4.30
2014,01,12,12,04,4.30
2014,01,12,12,05,4.40
2014,01,12,12,06,4.40
2014,01,12,12,07,4.40
2014,01,12,12,08,4.50
2014,01,12,12,09,4.50
2014,01,12,12,10,4.50
2014,01,12,12,11,4.50
2014,01,12,12,12,4.60
2014,01,12,12,13,4.50
2014,01,12,12,14,4.50
2014,01,12,12,15,4.50
2014,01,12,12,16,4.50
2014,01,12,12,17,4.50
2014,01,12,12,18,4.50
2014,01,12,12,19,4.50
2014,01,12,12,20,4.40
2014,01,12,12,21,4.40
2014,01,12,12,22,4.40
2014,01,12,12,23,4.40
2014,01,12,12,24,4.50
2014,01,12,12,25,4.50
2014,01,12,12,26,4.50
2014,01,12,12,27,4.40
2014,01,12,12,28,4.40
2014,01,12,12,29,4.40
2014,01,12,12,30,4.40
2014,01,12,12,31,4.40
2014,01,12,12,32,4.40
2014,01,12,12,33,4.40
2014,01,12,12,34,4.40
2014,01,12,12,35,4.40
2014,01,12,12,36,4.40
2014,01,12,12,37,4.40
2014,01,12,12,38,4.40
2014,01,12,12,39,4.40
2014,01,12,12,40,4.40
2014,01,12,12,41,4.40
2014,01,12,12,42,4.40
2014,01,12,12,43,4.50
2014,01,12,12,44,4.50
2014,01,12,12,45,4.50
2014,01,12,12,46,4.50
2014,01,12,12,47,4.50
2014,01,12,12,48,4.50
2014,01,12,12,49,4.50
2014,01,12,12,50,4.50
2014,01,12,12,51,4.50
2014,01,12,12,52,4.50
2014,01,12,12,53,4.60
2014,01,12,12,54,4.60
2014,01,12,12,55,4.60
2014,01,12,12,56,4.60
2014,01,12,12,57,4.60
2014,01,12,12,58,4.60
2014,01,12,12,59,4.60
2014,01,12,13,00,4.60
2014,01,12,13,01,4.60
2014,01,12,13,02,4.60
2014,01,12,13,03,4.60
2014,01,12,13,04,4.60
2014,01,12,13,05,4.60
2014,01,12,13,06,4.60
2014,01,12,13,07,4.60
2014,01,12,13,08,4.60
2014,01,12,13,09,4.60
2014,01,12,13,10,4.70
2014,01,12,13,11,4.70
2014,01,12,13,12,4.70
2014,01,12,13,13,4.70
2014,01,12,13,14,4.70
2014,01,12,13,15,4.70
2014,01,12,13,16,4.80
2014,01,12,13,17,4.80
2014,01,12,13,18,4.80
2014,01,12,13,19,4.80
2014,01,12,13,20,4.90
2014,01,12,13,21,4.90
2014,01,12,13,22,4.90
2014,01,12,13,23,5.00
2014,01,12,13,24,5.00
2014,01,12,13,25,5.00
2014,01,12,13,26,5.10
2014,01,12,13,27,5.10
2014,01,12,13,28,5.10
2014,01,12,13,29,5.10
2014,01,12,13,30,5.10
2014,01,12,13,31,5.20
2014,01,12,13,32,5.20
2014,01,12,13,33,5.30
2014,01,12,13,34,5.30
2014,01,12,13,35,5.30
2014,01,12,13,36,5.30
2014,01,12,13,37,5.40
2014,01,12,13,38,5.40
2014,01,12,13,39,5.40
2014,01,12,13,40,5.40
2014,01,12,13,41,5.40
2014,01,12,13,42,5.40
2014,01,12,13,43,5.40
2014,01,12,13,44,5.40
2014,01,12,13,45,5.50
2014,01,12,13,46,5.50
2014,01,12,13,47,5.50
2014,01,12,13,48,5.50
2014,01,12,13,49,5.60
2014,01,12,13,50,5.60
2014,01,12,13,51,5.60
2014,01,12,13,52,5.60
2014,01,12,13,53,5.60
2014,01,12,13,54,5.60
2014,01,12,13,55,5.70
2014,01,12,13,56,5.70
2014,01,12,13,57,5.70
2014,01,12,13,58,5.70
2014,01,12,13,59,5.70
2014,01,12,14,00,5.80
2014,01,12,14,01,5.80
2014,01,12,14,02,5.80
2014,01,12,14,03,5.80
2014,01,12,14,04,5.80
2014,01,12,14,05,5.90
2014,01,12,14,06,5.90
2014,01,12,14,07,5.90
2014,01,12,14,08,5.90
2014,01,12,14,09,5.90
2014,01,12,14,10,5.90
2014,01,12,14,11,5.90
2014,01,12,14,12,6.00
2014,01,12,14,13,6.00
2014,01,12,14,14,6.10
2014,01,12,14,15,6.10
2014,01,12,14,16,6.20
2014,01,12,14,17,6.20
2014,01,12,14,18,6.20
2014,01,12,14,19,6.20
2014,01,12,14,20,6.30
2014,01,12,14,21,6.30
2014,01,12,14,22,6.30
2014,01,12,14,23,6.40
2014,01,12,14,24,6.40
2014,01,12,14,25,6.40
2014,01,12,14,26,6.40
2014,01,12,14,27,6.40
2014,01,12,14,28,6.50
2014,01,12,14,29,6.50
2014,01,12,14,30,6.50
2014,01,12,14,31,6.60
2014,01,12,14,32,6.60
2014,01,12,14,33,6.60
2014,01,12,14,34,6.60
2014,01,12,14,35,6.60
2014,01,12,14,36,6.60
2014,01,12,14,37,6.60
2014,01,12,14,38,6.60
2014,01,12,14,39,6.60
2014,01,12,14,40,6.60
2014,01,12,14,41,6.60
2014,01,12,14,42,6.70
2014,01,12,14,43,6.70
2014,01,12,14,44,6.70
2014,01,12,14,45,6.70
2014,01,12,14,46,6.70
2014,01,12,14,47,6.70
2014,01,12,14,48,6.80
2014,01,12,14,49,6.80
2014,01,12,14,50,6.80
2014,01,12,14,51,6.80
2014,01,12,14,52,6.80
2014,01,12,14,53,6.80
2014,01,12,14,54,6.90
2014,01,12,14,55,6.90
2014,01,12,14,56,6.90
2014,01,12,14,57,6.90
2014,01,12,14,58,6.90
2014,01,12,14,59,6.90
2014,01,12,15,00,7.00
2014,01,12,15,01,7.00
2014,01,12,15,02,7.00
2014,01,12,15,03,7.00
2014,01,12,15,04,7.10
2014,01,12,15,05,7.10
2014,01,12,15,06,7.10
2014,01,12,15,07,7.10
2014,01,12,15,08,7.10
2014,01,12,15,09,7.10
2014,01,12,15,10,7.10
2014,01,12,15,11,7.10
2014,01,12,15,12,7.10
2014,01,12,15,13,7.20
2014,01,12,15,14,7.20
2014,01,12,15,15,7.20
2014,01,12,15,16,7.20
2014,01,12,15,17,7.20
2014,01,12,15,18,7.20
2014,01,12,15,19,7.20
2014,01,12,15,20,7.20
2014,01,12,15,21,7.20
2014,01,12,15,22,7.20
2014,01,12,15,23,7.20
2014,01,12,15,24,7.20
2014,01,12,15,25,7.20
2014,01,12,15,26,7.20
2014,01,12,15,27,7.20
2014,01,12,15,28,7.30
2014,01,12,15,29,7.30
2014,01,12,15,30,7.30
2014,01,12,15,31,7.30
2014,01,12,15,32,7.30
2014,01,12,15,33,7.30
2014,01,12,15,34,7.30
2014,01,12,15,35,7.40
2014,01,12,15,36,7.40
2014,01,12,15,37,7.40
2014,01,12,15,38,7.40
2014,01,12,15,39,7.40
2014,01,12,15,40,7.40
2014,01,12,15,41,7.40
2014,01,12,15,42,7.40
2014,01,12,15,43,7.40
2014,01,12,15,44,7.40
2014,01,12,15,45,7.40
2014,01,12,15,46,7.50
2014,01,12,15,47,7.40
2014,01,12,15,48,7.50
2014,01,12,15,49,7.40
2014,01,12,15,50,7.40
2014,01,12,15,51,7.50
2014,01,12,15,52,7.40
2014,01,12,15,53,7.40
2014,01,12,15,54,7.40
2014,01,12,15,55,7.40
2014,01,12,15,56,7.40
2014,01,12,15,57,7.40
2014,01,12,15,58,7.40
2014,01,12,15,59,7.40
2014,01,12,16,00,7.40
2014,01,12,16,01,7.40
2014,01,12,16,02,7.40
2014,01,12,16,03,7.40
2014,01,12,16,04,7.40
2014,01,12,16,05,7.40
2014,01,12,16,06,7.40
2014,01,12,16,07,7.50
2014,01,12,16,08,7.50
2014,01,12,16,09,7.50
2014,01,12,16,10,7.50
2014,01,12,16,11,7.50
2014,01,12,16,12,7.50
2014,01,12,16,13,7.50
2014,01,12,16,14,7.50
2014,01,12,16,15,7.60
2014,01,12,16,16,7.60
2014,01,12,16,17,7.70
2014,01,12,16,18,7.70
2014,01,12,16,19,7.80
2014,01,12,16,20,7.80
2014,01,12,16,21,7.80
2014,01,12,16,22,7.90
2014,01,12,16,23,7.90
2014,01,12,16,24,8.00
2014,01,12,16,25,8.00
2014,01,12,16,26,8.10
2014,01,12,16,27,8.10
2014,01,12,16,28,8.20
2014,01,12,16,29,8.20
2014,01,12,16,30,8.20
2014,01,12,16,31,8.20
2014,01,12,16,32,8.30
2014,01,12,16,33,8.30
2014,01,12,16,34,8.30
2014,01,12,16,35,8.30
2014,01,12,16,36,8.30
2014,01,12,16,37,8.30
2014,01,12,16,38,8.30
2014,01,12,16,39,8.30
2014,01,12,16,40,8.30
2014,01,12,16,41,8.30
2014,01,12,16,42,8.30
2014,01,12,16,43,8.30
2014,01,12,16,44,8.30
2014,01,12,16,45,8.30
2014,01,12,16,46,8.30
2014,01,12,16,47,8.30
2014,01,12,16,48,8.30
2014,01,12,16,49,8.30
2014,01,12,16,50,8.30
2014,01,12,16,51,8.20
2014,01,12,16,52,8.20
2014,01,12,16,53,8.30
2014,01,12,16,54,8.30
2014,01,12,16,55,8.30
2014,01,12,16,56,8.30
2014,01,12,16,57,8.30
2014,01,12,16,58,8.30
2014,01,12,16,59,8.30
2014,01,12,17,00,8.30
2014,01,12,17,01,8.30
2014,01,12,17,02,8.30
2014,01,12,17,03,8.30
2014,01,12,17,04,8.30
2014,01,12,17,05,8.30
2014,01,12,17,06,8.30
2014,01,12,17,07,8.40
2014,01,12,17,08,8.40
2014,01,12,17,09,8.40
2014,01,12,17,10,8.40
2014,01,12,17,11,8.40
2014,01,12,17,12,8.40
2014,01,12,17,13,8.40
2014,01,12,17,14,8.40
2014,01,12,17,15,8.40
2014,01,12,17,16,8.40
2014,01,12,17,17,8.40
2014,01,12,17,18,8.40
2014,01,12,17,19,8.40
2014,01,12,17,20,8.30
2014,01,12,17,21,8.40
2014,01,12,17,22,8.30
2014,01,12,17,23,8.40
2014,01,12,17,24,8.40
2014,01,12,17,25,8.40
2014,01,12,17,26,8.40
2014,01,12,17,27,8.40
2014,01,12,17,28,8.40
2014,01,12,17,29,8.40
2014,01,12,17,30,8.40
2014,01,12,17,31,8.40
2014,01,12,17,32,8.40
2014,01,12,17,33,8.40
2014,01,12,17,34,8.40
2014,01,12,17,35,8.40
2014,01,12,17,36,8.40
2014,01,12,17,37,8.40
2014,01,12,17,38,8.40
2014,01,12,17,39,8.40
2014,01,12,17,40,8.30
2014,01,12,17,41,8.30
2014,01,12,17,42,8.30
2014,01,12,17,43,8.30
2014,01,12,17,44,8.30
2014,01,12,17,45,8.20
2014,01,12,17,46,8.20
2014,01,12,17,47,8.20
2014,01,12,17,48,8.20
2014,01,12,17,49,8.20
2014,01,12,17,50,8.20
2014,01,12,17,51,8.20
2014,01,12,17,52,8.20
2014,01,12,17,53,8.20
2014,01,12,17,54,8.20
2014,01,12,17,55,8.10
2014,01,12,17,56,8.10
2014,01,12,17,57,8.10
2014,01,12,17,58,8.10
2014,01,12,17,59,8.10
2014,01,12,18,00,8.10
2014,01,12,18,01,8.10
2014,01,12,18,02,8.10
2014,01,12,18,03,8.10
2014,01,12,18,04,8.10
2014,01,12,18,05,8.20
2014,01,12,18,06,8.20
2014,01,12,18,07,8.20
2014,01,12,18,08,8.20
2014,01,12,18,09,8.30
2014,01,12,18,10,8.40
2014,01,12,18,11,8.40
2014,01,12,18,12,8.40
2014,01,12,18,13,8.40
2014,01,12,18,14,8.40
2014,01,12,18,15,8.50
2014,01,12,18,16,8.50
2014,01,12,18,17,8.50
2014,01,12,18,18,8.50
2014,01,12,18,19,8.50
2014,01,12,18,20,8.50
2014,01,12,18,21,8.50
2014,01,12,18,22,8.40
2014,01,12,18,23,8.40
2014,01,12,18,24,8.40
2014,01,12,18,25,8.40
2014,01,12,18,26,8.40
2014,01,12,18,27,8.40
2014,01,12,18,28,8.40
2014,01,12,18,29,8.40
2014,01,12,18,30,8.40
2014,01,12,18,31,8.30
2014,01,12,18,32,8.30
2014,01,12,18,33,8.30
2014,01,12,18,34,8.30
2014,01,12,18,35,8.30
2014,01,12,18,36,8.30
2014,01,12,18,37,8.30
2014,01,12,18,38,8.40
2014,01,12,18,39,8.40
2014,01,12,18,40,8.40
2014,01,12,18,41,8.40
2014,01,12,18,42,8.40
2014,01,12,18,43,8.40
2014,01,12,18,44,8.50
2014,01,12,18,45,8.50
2014,01,12,18,46,8.50
2014,01,12,18,47,8.60
2014,01,12,18,48,8.60
2014,01,12,18,49,8.60
2014,01,12,18,50,8.60
2014,01,12,18,51,8.60
2014,01,12,18,52,8.60
2014,01,12,18,53,8.60
2014,01,12,18,54,8.60
2014,01,12,18,55,8.60
2014,01,12,18,56,8.70
2014,01,12,18,57,8.70
2014,01,12,18,58,8.70
2014,01,12,18,59,8.70
2014,01,12,19,00,8.70
2014,01,12,19,01,8.70
2014,01,12,19,02,8.70
2014,01,12,19,03,8.70
2014,01,12,19,04,8.70
2014,01,12,19,05,8.70
2014,01,12,19,06,8.70
2014,01,12,19,07,8.70
2014,01,12,19,08,8.70
2014,01,12,19,09,8.70
2014,01,12,19,10,8.70
2014,01,12,19,11,8.70
2014,01,12,19,12,8.70
2014,01,12,19,13,8.70
2014,01,12,19,14,8.70
2014,01,12,19,15,8.60
2014,01,12,19,16,8.60
2014,01,12,19,17,8.60
2014,01,12,19,18,8.60
2014,01,12,19,19,8.60
2014,01,12,19,20,8.60
2014,01,12,19,21,8.60
2014,01,12,19,22,8.60
2014,01,12,19,23,8.60
2014,01,12,19,24,8.60
2014,01,12,19,25,8.60
2014,01,12,19,26,8.60
2014,01,12,19,27,8.60
2014,01,12,19,28,8.60
2014,01,12,19,29,8.60
2014,01,12,19,30,8.60
2014,01,12,19,31,8.60
2014,01,12,19,32,8.60
2014,01,12,19,33,8.60
2014,01,12,19,34,8.50
2014,01,12,19,35,8.50
2014,01,12,19,36,8.50
2014,01,12,19,37,8.50
2014,01,12,19,38,8.50
2014,01,12,19,39,8.50
2014,01,12,19,40,8.50
2014,01,12,19,41,8.50
2014,01,12,19,42,8.50
2014,01,12,19,43,8.50
2014,01,12,19,44,8.50
2014,01,12,19,45,8.60
2014,01,12,19,46,8.60
2014,01,12,19,47,8.60
2014,01,12,19,48,8.60
2014,01,12,19,49,8.60
2014,01,12,19,50,8.60
2014,01,12,19,51,8.60
2014,01,12,19,52,8.60
2014,01,12,19,53,8.60
2014,01,12,19,54,8.60
2014,01,12,19,55,8.60
2014,01,12,19,56,8.60
2014,01,12,19,57,8.60
2014,01,12,19,58,8.60
2014,01,12,19,59,8.70
2014,01,12,20,00,8.70
2014,01,12,20,01,8.70
2014,01,12,20,02,8.70
2014,01,12,20,03,8.70
2014,01,12,20,04,8.70
2014,01,12,20,05,8.70
2014,01,12,20,06,8.70
2014,01,12,20,07,8.70
2014,01,12,20,08,8.70
2014,01,12,20,09,8.70
2014,01,12,20,10,8.70
2014,01,12,20,11,8.70
2014,01,12,20,12,8.70
2014,01,12,20,13,8.70
2014,01,12,20,14,8.70
2014,01,12,20,15,8.70
2014,01,12,20,16,8.70
2014,01,12,20,17,8.70
2014,01,12,20,18,8.70
2014,01,12,20,19,8.70
2014,01,12,20,20,8.70
2014,01,12,20,21,8.70
2014,01,12,20,22,8.60
2014,01,12,20,23,8.60
2014,01,12,20,24,8.60
2014,01,12,20,25,8.60
2014,01,12,20,26,8.60
2014,01,12,20,27,8.70
2014,01,12,20,28,8.70
2014,01,12,20,29,8.70
2014,01,12,20,30,8.80
2014,01,12,20,31,8.80
2014,01,12,20,32,8.80
2014,01,12,20,33,8.90
2014,01,12,20,34,8.90
2014,01,12,20,35,8.90
2014,01,12,20,36,8.90
2014,01,12,20,37,8.90
2014,01,12,20,38,8.90
2014,01,12,20,39,8.90
2014,01,12,20,40,9.00
2014,01,12,20,41,9.00
2014,01,12,20,42,9.00
2014,01,12,20,43,9.00
2014,01,12,20,44,9.00
2014,01,12,20,45,9.00
2014,01,12,20,46,9.00
2014,01,12,20,47,9.00
2014,01,12,20,48,9.00
2014,01,12,20,49,9.00
2014,01,12,20,50,9.00
2014,01,12,20,51,9.00
2014,01,12,20,52,9.00
2014,01,12,20,53,9.00
2014,01,12,20,54,9.00
2014,01,12,20,55,9.00
2014,01,12,20,56,9.00
2014,01,12,20,57,9.00
2014,01,12,20,58,9.00
2014,01,12,20,59,9.00
2014,01,12,21,00,9.00
2014,01,12,21,01,9.00
2014,01,12,21,02,9.00
2014,01,12,21,03,9.00
2014,01,12,21,04,9.00
2014,01,12,21,05,9.00
2014,01,12,21,06,9.00
2014,01,12,21,07,9.00
2014,01,12,21,08,9.00
2014,01,12,21,09,9.00
2014,01,12,21,10,9.00
2014,01,12,21,11,9.00
2014,01,12,21,12,9.10
2014,01,12,21,13,9.10
2014,01,12,21,14,9.10
2014,01,12,21,15,9.10
2014,01,12,21,16,9.10
2014,01,12,21,17,9.10
2014,01,12,21,18,9.10
2014,01,12,21,19,9.10
2014,01,12,21,20,9.10
2014,01,12,21,21,9.20
2014,01,12,21,22,9.20
2014,01,12,21,23,9.30
2014,01,12,21,24,9.30
2014,01,12,21,25,9.30
2014,01,12,21,26,9.30
2014,01,12,21,27,9.30
2014,01,12,21,28,9.30
2014,01,12,21,29,9.30
2014,01,12,21,30,9.30
2014,01,12,21,31,9.30
2014,01,12,21,32,9.30
2014,01,12,21,33,9.20
2014,01,12,21,34,9.20
2014,01,12,21,35,9.20
2014,01,12,21,36,9.10
2014,01,12,21,37,9.10
2014,01,12,21,38,9.00
2014,01,12,21,39,9.00
2014,01,12,21,40,8.90
2014,01,12,21,41,8.90
2014,01,12,21,42,8.90
2014,01,12,21,43,8.80
2014,01,12,21,44,8.80
2014,01,12,21,45,8.80
2014,01,12,21,46,8.80
2014,01,12,21,47,8.80
2014,01,12,21,48,8.80
2014,01,12,21,49,8.80
2014,01,12,21,50,8.80
2014,01,12,21,51,8.80
2014,01,12,21,52,8.80
2014,01,12,21,53,8.90
2014,01,12,21,54,8.90
2014,01,12,21,55,8.90
2014,01,12,21,56,8.90
2014,01,12,21,57,8.90
2014,01,12,21,58,8.90
2014,01,12,21,59,8.90
2014,01,12,22,00,8.90
2014,01,12,22,01,8.90
2014,01,12,22,02,8.90
2014,01,12,22,03,8.90
2014,01,12,22,04,8.90
2014,01,12,22,05,8.90
2014,01,12,22,06,8.90
2014,01,12,22,07,8.90
2014,01,12,22,08,8.90
2014,01,12,22,09,8.90
2014,01,12,22,10,8.90
2014,01,12,22,11,8.90
2014,01,12,22,12,8.90
2014,01,12,22,13,8.90
2014,01,12,22,14,8.90
2014,01,12,22,15,8.90
2014,01,12,22,16,8.90
2014,01,12,22,17,8.90
2014,01,12,22,18,8.80
2014,01,12,22,19,8.80
2014,01,12,22,20,8.80
2014,01,12,22,21,8.80
2014,01,12,22,22,8.80
2014,01,12,22,23,8.80
2014,01,12,22,24,8.80
2014,01,12,22,25,8.80
2014,01,12,22,26,8.80
2014,01,12,22,27,8.80
2014,01,12,22,28,8.80
2014,01,12,22,29,8.80
2014,01,12,22,30,8.80
2014,01,12,22,31,8.80
2014,01,12,22,32,8.80
2014,01,12,22,33,8.80
2014,01,12,22,34,8.80
2014,01,12,22,35,8.80
2014,01,12,22,36,8.80
2014,01,12,22,37,8.80
2014,01,12,22,38,8.80
2014,01,12,22,39,8.80
2014,01,12,22,40,8.80
2014,01,12,22,41,8.80
2014,01,12,22,42,8.70
2014,01,12,22,43,8.70
2014,01,12,22,44,8.70
2014,01,12,22,45,8.70
2014,01,12,22,46,8.70
2014,01,12,22,47,8.70
2014,01,12,22,48,8.70
2014,01,12,22,49,8.70
2014,01,12,22,50,8.70
2014,01,12,22,51,8.70
2014,01,12,22,52,8.70
2014,01,12,22,53,8.70
2014,01,12,22,54,8.70
2014,01,12,22,55,8.70
2014,01,12,22,56,8.80
2014,01,12,22,57,8.80
2014,01,12,22,58,8.80
2014,01,12,22,59,8.80
2014,01,12,23,00,8.80
2014,01,12,23,01,8.80
2014,01,12,23,02,8.80
2014,01,12,23,03,8.80
2014,01,12,23,04,8.70
2014,01,12,23,05,8.70
2014,01,12,23,06,8.70
2014,01,12,23,07,8.70
2014,01,12,23,08,8.70
2014,01,12,23,09,8.70
2014,01,12,23,10,8.70
2014,01,12,23,11,8.70
2014,01,12,23,12,8.70
2014,01,12,23,13,8.70
2014,01,12,23,14,8.70
2014,01,12,23,15,8.70
2014,01,12,23,16,8.70
2014,01,12,23,17,8.70
2014,01,12,23,18,8.70
2014,01,12,23,19,8.70
2014,01,12,23,20,8.70
2014,01,12,23,21,8.70
2014,01,12,23,22,8.70
2014,01,12,23,23,8.70
2014,01,12,23,24,8.70
2014,01,12,23,25,8.70
2014,01,12,23,26,8.70
2014,01,12,23,27,8.70
2014,01,12,23,28,8.70
2014,01,12,23,29,8.70
2014,01,12,23,30,8.70
2014,01,12,23,31,8.70
2014,01,12,23,32,8.70
2014,01,12,23,33,8.70
2014,01,12,23,34,8.70
2014,01,12,23,35,8.70
2014,01,12,23,36,8.70
2014,01,12,23,37,8.70
2014,01,12,23,38,8.70
2014,01,12,23,39,8.70
2014,01,12,23,40,8.70
2014,01,12,23,41,8.70
2014,01,12,23,42,8.70
2014,01,12,23,43,8.70
2014,01,12,23,44,8.70